Flag for Germany Weather past 2 weeks in Ingolstadt, Bavaria, Germany

Now
43 °F

Quite cool.


Feels Like: 41 °F
Forecast: 36 / 53 °F
Wind: 3 mph from East

Location: Ingolstadt Airport

Current Time: Oct 25, 2014 at 10:54:55 PM

Latest Report: Oct 25, 2014 at 9:20 PM


Visibility: N/A

Pressure: 30.24 "Hg

Humidity: 100%

Dew point: 43 °F

Location of IngolstadtLocation

Historic Weather in Ingolstadt — Graph

°F

Ingolstadt temperature yesterday

Maximum temperature yesterday: 54 °F (at 2:20 PM)
Minimum temperature yesterday: 37 °F (at 6:20 AM)
Average temperature yesterday: 46 °F

Past Weeks' High & Low Weather Summary

 TemperatureHumidityPressure
High66 °F (Oct 12, 3:20 PM)100% (Oct 11, 3:20 AM)30.27 "Hg (Oct 11, 3:20 AM)
Low37 °F (Oct 24, 6:20 AM)60% (Oct 14, 3:20 PM)29.62 "Hg (Oct 21, 8:20 PM)
Average53 °F91%29.99 "Hg
* Reported Oct 10 9:20 PM — Oct 25 9:20 PM, Ingolstadt, Weather by CustomWeather, © 2014

Note: Actual official high and low records may vary slightly from our data, if they occured in-between our weather recording intervals... More about our weather records

Advertising

Ingolstadt weather history for previous 24 hours

 ConditionsComfort  
Time TempWeatherWind HumidityBarometerVisibility
9:20 PM
Oct 25
43 °FQuite cool.3 mph100%30.24 "HgN/A
8:20 PM43 °FQuite cool.3 mph100%30.21 "HgN/A
7:20 PM45 °FQuite cool.3 mph93%30.21 "HgN/A
6:20 PM45 °FQuite cool.5 mph93%30.21 "HgN/A
5:20 PM45 °FQuite cool.3 mph93%30.18 "HgN/A
4:20 PM45 °FQuite cool.5 mph93%30.18 "HgN/A
3:20 PM46 °FCool.5 mph87%30.18 "HgN/A
2:20 PM46 °FCool.3 mph82%30.18 "HgN/A
1:20 PM45 °FQuite cool.3 mph87%30.18 "HgN/A
12:20 PM45 °FPartly sunny.3 mph87%30.18 "HgN/A
11:55 AM43 °FPartly sunny.3 mph93%30.18 "HgN/A
11:20 AM43 °FMostly cloudy.3 mph93%30.18 "Hg4 mi
10:20 AM41 °FFog.3 mph100%30.18 "Hg3 mi
9:20 AM39 °FChilly.2 mph100%30.15 "HgN/A
8:20 AM39 °FFog.2 mph100%30.15 "Hg1 mi
7:20 AM39 °FChilly.2 mph100%30.12 "HgN/A
6:20 AM39 °FChilly.3 mph100%30.12 "HgN/A
5:20 AM39 °FChilly.5 mph100%30.12 "HgN/A
4:20 AM39 °FChilly.2 mph100%30.12 "HgN/A
3:20 AM37 °FChilly.3 mph100%30.12 "HgN/A
2:20 AM37 °FChilly.2 mph100%30.15 "HgN/A
1:20 AM37 °FChilly.2 mph100%30.15 "HgN/A
12:20 AM37 °FChilly.1 mph100%30.15 "HgN/A
11:20 PM
Oct 24
37 °FChilly.3 mph100%30.15 "HgN/A
10:20 PM39 °FFog.No wind100%30.15 "Hg5 mi
Weather by CustomWeather, © 2014

See weather overviewHow to use our weather pages